Location: ???????
(54.6339°N, 39.4245°E)
Time: 14:48:35
(UTC+00:00)

USA 229 DEB - Pass Details

Date: 19 May 2025
Orbit: 872 x 1339 km, 63.4° (Epoch: 17 June)

Event Time Altitude Azimuth Distance (km) Brightness Sun altitude
Exits shadow 23:20:43 - 256° (WSW) 3,501 6.0 -11.0°
Reaches altitude 10° 23:22:55 10° 260° (W) 2,726 5.5 -10.8°
Maximum altitude 23:29:11 53° 337° (NNW) 1,285 4.4 -10.3°
Drops below altitude 10° 23:36:14 10° 54° (NE) 3,058 7.4 -9.8°
Sets 23:39:13 0° 59° (ENE) 4,092 8.0 -9.6°
